Fort Collins, CO

9:38 AM MDT on July 26, 2017 (GMT -0600)
Fort Collins-Loveland Municipal

Weather History for KFNL - November, 2011

Change the Weather History Date:

Friday, November 18, 2011

  Actual Average Record
Temperature  
Mean Temperature 47 °F -  
Max Temperature 64 °F - 77 °F (2008)
Min Temperature 30 °F - 6 °F (2000)
Degree Days  
Heating Degree Days 18    
Month to date heating degree days  
Cooling Degree Days 0    
Month to date cooling degree days  
Moisture  
Dew Point 17 °F    
Average Humidity 29    
Maximum Humidity 64    
Minimum Humidity 15    
Precipitation  
Precipitation 0.00 in - 0.20 in (2001)
Sea Level Pressure  
Sea Level Pressure 29.56 in    
Wind  
Wind Speed 12 mph (SW)    
Max Wind Speed 30 mph    
Max Gust Speed 34 mph    
Visibility 10 miles    
Events      
T = Trace of Precipitation, MM = Missing Value Source: NWS Daily Summary

Daily Weather History Graph

Daily Weather History Graph

Search for Another Location

Airport or City:

Trip Planner

Search our weather history database for the weather conditions in past years. The results will help you decide how hot, cold, wet, or windy it might be!

Date:

Astronomy

Nov. 18, 2011 Rise Set
Actual Time 6:49 AM MST 4:40 PM MST
Civil Twilight 6:20 AM MST 5:09 PM MST
Nautical Twilight 5:46 AM MST 5:43 PM MST
Astronomical Twilight 5:14 AM MST 6:15 PM MST
Moon No Moon Rise 12:29 PM MST (11/18)
Length of Visible Light 10h 49m
Length of Day
9h 51m
Waning Gibbous, 48% of the Moon is Illuminated
Nov 18
Waning Gibbous
Nov 24
New
Dec 2
First Quarter
Dec 10
Full
Dec 17
Last Quarter

Hourly Weather History & Observations

Time (MST) Temp. Windchill Dew Point Humidity Pressure Visibility Wind Dir Wind Speed Gust Speed Precip Events Conditions
12:15 AM 44.6 °F 38.8 °F 17.6 °F 34% 29.70 in 10.0 mi SW 11.5 mph - N/A   Clear
12:35 AM 44.6 °F 41.4 °F 15.8 °F 31% 29.69 in 10.0 mi NNW 5.8 mph - N/A   Clear
12:55 AM 44.6 °F 42.2 °F 15.8 °F 31% 29.69 in 10.0 mi SSW 4.6 mph - N/A   Clear
1:35 AM 44.6 °F 39.7 °F 17.6 °F 34% 29.68 in 10.0 mi SE 9.2 mph - N/A   Clear
1:55 AM 44.6 °F 38.8 °F 15.8 °F 31% 29.67 in 10.0 mi SE 11.5 mph - N/A   Clear
2:15 AM 42.8 °F 39.3 °F 17.6 °F 36% 29.67 in 10.0 mi SE 5.8 mph - N/A   Clear
2:35 AM 35.6 °F 29.2 °F 17.6 °F 48% 29.68 in 10.0 mi NE 8.1 mph - N/A   Clear
2:55 AM 33.8 °F 29.6 °F 15.8 °F 48% 29.67 in 10.0 mi SE 4.6 mph - N/A   Clear
3:15 AM 30.2 °F 23.4 °F 17.6 °F 60% 29.67 in 10.0 mi North 6.9 mph - N/A   Clear
3:35 AM 35.6 °F - 17.6 °F 48% 29.65 in 10.0 mi Calm Calm - N/A   Clear
3:55 AM 37.4 °F 32.1 °F 17.6 °F 45% 29.65 in 10.0 mi ESE 6.9 mph - N/A   Clear
4:15 AM 44.6 °F 36.9 °F 21.2 °F 39% 29.64 in 10.0 mi SW 18.4 mph 25.3 mph N/A   Clear
4:35 AM 50.0 °F - 17.6 °F 28% 29.64 in 10.0 mi WSW 17.3 mph - N/A   Clear
4:55 AM 51.8 °F - 17.6 °F 26% 29.63 in 10.0 mi SW 17.3 mph - N/A   Clear
5:15 AM 51.8 °F - 17.6 °F 26% 29.62 in 10.0 mi WSW 23.0 mph 29.9 mph N/A   Clear
5:35 AM 51.8 °F - 17.6 °F 26% 29.61 in 10.0 mi WSW 25.3 mph 33.4 mph N/A   Clear
5:55 AM 51.8 °F - 17.6 °F 26% 29.61 in 10.0 mi WSW 29.9 mph 34.5 mph N/A   Clear
6:15 AM 51.8 °F - 17.6 °F 26% 29.61 in 10.0 mi WSW 25.3 mph 32.2 mph N/A   Clear
6:35 AM 51.8 °F - 17.6 °F 26% 29.60 in 10.0 mi SW 26.5 mph 34.5 mph N/A   Clear
6:55 AM 51.8 °F - 17.6 °F 26% 29.60 in 10.0 mi SW 27.6 mph 33.4 mph N/A   Clear
7:15 AM 51.8 °F - 17.6 °F 26% 29.62 in 10.0 mi SW 20.7 mph 24.2 mph N/A   Clear
7:35 AM 51.8 °F - 17.6 °F 26% 29.63 in 10.0 mi SW 15.0 mph 20.7 mph N/A   Clear
7:55 AM 51.8 °F - 19.4 °F 28% 29.62 in 10.0 mi SW 16.1 mph 23.0 mph N/A   Clear
8:15 AM 53.6 °F - 19.4 °F 26% 29.62 in 10.0 mi West 17.3 mph - N/A   Clear
8:35 AM 55.4 °F - 19.4 °F 25% 29.62 in 10.0 mi WSW 13.8 mph 23.0 mph N/A   Clear
8:55 AM 55.4 °F - 17.6 °F 23% 29.62 in 10.0 mi West 5.8 mph 18.4 mph N/A   Clear
9:15 AM 57.2 °F - 19.4 °F 23% 29.61 in 10.0 mi Calm Calm - N/A   Clear
9:35 AM 57.2 °F - 17.6 °F 21% 29.61 in 10.0 mi ENE 4.6 mph - N/A   Clear
9:55 AM 57.2 °F - 19.4 °F 23% 29.61 in 10.0 mi SW 8.1 mph 23.0 mph N/A   Clear
10:15 AM 59.0 °F - 19.4 °F 22% 29.61 in 10.0 mi WSW 17.3 mph 26.5 mph N/A   Clear
10:35 AM 60.8 °F - 19.4 °F 20% 29.60 in 10.0 mi WSW 16.1 mph 29.9 mph N/A   Clear
11:35 AM 62.6 °F - 17.6 °F 18% 29.56 in 10.0 mi WSW 18.4 mph 32.2 mph N/A   Clear
11:55 AM 62.6 °F - 17.6 °F 18% 29.54 in 10.0 mi WSW 17.3 mph - N/A   Clear
12:35 PM 64.4 °F - 17.6 °F 16% 29.51 in 10.0 mi SSW 19.6 mph 27.6 mph N/A   Clear
12:55 PM 64.4 °F - 17.6 °F 16% 29.51 in 10.0 mi SSW 18.4 mph 25.3 mph N/A   Clear
1:15 PM 64.4 °F - 17.6 °F 16% 29.51 in 10.0 mi SW 19.6 mph 27.6 mph N/A   Clear
1:55 PM 64.4 °F - 15.8 °F 15% 29.50 in 10.0 mi SSW 24.2 mph 27.6 mph N/A   Clear
2:15 PM 64.4 °F - 15.8 °F 15% 29.50 in 10.0 mi SW 23.0 mph 33.4 mph N/A   Clear
3:15 PM 64.4 °F - 15.8 °F 15% 29.50 in 10.0 mi SW 16.1 mph 29.9 mph N/A   Clear
3:35 PM 62.6 °F - 15.8 °F 16% 29.50 in 10.0 mi WSW 18.4 mph 24.2 mph N/A   Clear
3:55 PM 62.6 °F - 15.8 °F 16% 29.50 in 10.0 mi WSW 19.6 mph 25.3 mph N/A   Clear
4:35 PM 59.0 °F - 14.0 °F 17% 29.50 in 10.0 mi WSW 16.1 mph - N/A   Clear
5:15 PM 55.4 °F - 14.0 °F 20% 29.50 in 10.0 mi WSW 8.1 mph - N/A   Clear
5:35 PM 55.4 °F - 12.2 °F 18% 29.50 in 10.0 mi WSW 8.1 mph - N/A   Clear
5:55 PM 55.4 °F - 12.2 °F 18% 29.49 in 10.0 mi WSW 5.8 mph - N/A   Clear
6:35 PM 53.6 °F - 12.2 °F 19% 29.47 in 10.0 mi West 5.8 mph - N/A   Clear
6:55 PM 50.0 °F - 12.2 °F 22% 29.47 in 10.0 mi NW 4.6 mph - N/A   Clear
7:15 PM 51.8 °F - 12.2 °F 21% 29.46 in 10.0 mi SE 6.9 mph - N/A   Clear
7:55 PM 51.8 °F - 12.2 °F 21% 29.45 in 10.0 mi South 6.9 mph - N/A   Clear
8:35 PM 42.8 °F 38.6 °F 17.6 °F 36% 29.45 in 10.0 mi SSE 6.9 mph - N/A   Clear
8:55 PM 42.8 °F - 15.8 °F 34% 29.45 in 10.0 mi Calm Calm - N/A   Clear
9:15 PM 42.8 °F - 15.8 °F 34% 29.45 in 10.0 mi Calm Calm - N/A   Clear
9:35 PM 44.6 °F - 15.8 °F 31% 29.44 in 10.0 mi Calm Calm - N/A   Clear
9:55 PM 39.2 °F 33.6 °F 17.6 °F 42% 29.43 in 10.0 mi North 8.1 mph - N/A   Clear
10:15 PM 39.2 °F 37.0 °F 19.4 °F 45% 29.43 in 10.0 mi NNW 3.5 mph - N/A   Clear
10:35 PM 39.2 °F 30.8 °F 15.8 °F 39% 29.45 in 10.0 mi NE 15.0 mph - N/A   Clear
11:15 PM 33.8 °F 23.9 °F 21.2 °F 60% 29.48 in 10.0 mi North 15.0 mph - N/A   Clear
11:35 PM 33.8 °F 25.8 °F 19.4 °F 56% 29.49 in 10.0 mi North 10.4 mph - N/A   Clear
11:55 PM 32.0 °F 22.5 °F 21.2 °F 64% 29.49 in 10.0 mi North 12.7 mph - N/A   Clear